If you wish to contribute or participate in the discussions about articles you are invited to join SKYbrary as a registered user

 Actions

Araxa Airport

From SKYbrary Wiki

SBAX
Airport
ICAO: SBAX – IATA: AAX
Summary
Name Araxa Airport
Region South America and Caribbean
Territory Brazil BR.gif
Location Araxa, Minas Gerais
Serving Araxa
Elevation 998.525 m
3,276 ft998.525 m
Coordinates 19° 33' 38.02" S, 46° 57' 56.02" W
Runways
Designator Length Width Surface ROPS
15/33 1900 m6,233.596 ft
30 m98.425 ft
ASP /


METAR
Observation SBAX 192200Z 17004KT CAVOK 21/11 Q1023
Station ARAXA
Date/Time 19 June 2019 22:00:00
Wind direction 170°
Wind speed 04 kts
Lowest cloud amount clouds and visibility OK
Temperature 21°C
Dew point 11°C
Humidity 52%
QNH 1023 hPa
Weather condition n/a

Romeu Zema Airport is the airport serving Araxá, Brazil.

Climatology

Humid subtropical climate (Köppen climate classification Cwb)

Maps

Terrain

Loading map...

Airport Layout

Loading map...


Accidents & Serious Incidents at or in vicinity of SBAX

None on SKYbrary